Weather History for KCMH - January, 2014

Change the Weather History Date:

Thursday, January 2, 2014

  Actual Average Record
Temperature  
Mean Temperature 21 °F 30 °F  
Max Temperature 30 °F 37 °F 64 °F (2000)
Min Temperature 11 °F 23 °F -13 °F (1879)
Degree Days  
Heating Degree Days 44 35  
Month to date heating degree days 77 70  
Since 1 July heating degree days 2070 2061  
Cooling Degree Days 0 0  
Month to date cooling degree days 0 0  
Year to date cooling degree days 0 0  
Moisture  
Dew Point 17 °F    
Average Humidity 76    
Maximum Humidity 85    
Minimum Humidity 67    
Precipitation  
Precipitation 0.26 in 0.09 in 0.95 in (1947)
Month to date precipitation 0.26 0.19  
Year to date precipitation 0.26 0.19  
Snow  
Snow 3.30 in 0.20 in 6.40 in (1999)
Month to date snowfall 3.3 0.5  
Since 1 July snowfall 20.7 6.6  
Snow Depth 1.00 in    
Sea Level Pressure  
Sea Level Pressure 29.93 in    
Wind  
Wind Speed 14 mph (North)    
Max Wind Speed 29 mph    
Max Gust Speed 38 mph    
Visibility 2 miles    
Events Fog , Snow    
T = Trace of Precipitation, MM = Missing Value Source: NWS Daily Summary

Daily Weather History Graph

Daily Weather History Graph

Search for Another Location

Airport or City:

Trip Planner

Search our weather history database for the weather conditions in past years. The results will help you decide how hot, cold, wet, or windy it might be!

Date:

Astronomy

Jan. 02, 2014 Rise Set
Actual Time 7:53 AM EST 5:17 PM EST
Civil Twilight 7:23 AM EST 5:48 PM EST
Nautical Twilight 6:49 AM EST 6:22 PM EST
Astronomical Twilight 6:16 AM EST 6:55 PM EST
Moon 8:34 AM EST (1/2) 7:13 PM EST (1/2)
Length of Visible Light 10h 25m
Length of Day
9h 24m
New Moon, 2% of the Moon is Illuminated
Jan 2
New Moon
Jan 7
First Quarter
Jan 15
Full
Jan 24
Last Quarter
Jan 30
New

Hourly Weather History & Observations

Time (EST) Temp. Windchill Dew Point Humidity Pressure Visibility Wind Dir Wind Speed Gust Speed Precip Events Conditions
12:51 AM 30.0 °F 26.5 °F 23.0 °F 75% 30.04 in 8.0 mi East 3.5 mph - 0.00 in Snow Light Snow
1:01 AM 30.2 °F 26.7 °F 23.0 °F 75% 30.01 in 7.0 mi East 3.5 mph - 0.00 in   Overcast
1:51 AM 30.0 °F - 23.0 °F 75% 30.01 in 8.0 mi Calm Calm - 0.00 in   Overcast
2:51 AM 30.0 °F 25.2 °F 23.0 °F 75% 30.01 in 8.0 mi North 4.6 mph - N/A   Overcast
3:51 AM 30.0 °F 24.1 °F 23.0 °F 75% 30.00 in 7.0 mi NNE 5.8 mph - N/A   Overcast
4:51 AM 30.0 °F 26.5 °F 23.0 °F 75% 29.98 in 5.0 mi ENE 3.5 mph - 0.00 in Snow Light Snow
5:02 AM 28.4 °F 24.6 °F 24.8 °F 86% 29.96 in 2.0 mi ENE 3.5 mph - 0.00 in Snow Light Snow
5:09 AM 28.4 °F 24.6 °F 24.8 °F 86% 29.95 in 1.5 mi ENE 3.5 mph - 0.01 in Snow Light Snow
5:51 AM 28.9 °F 23.9 °F 25.0 °F 85% 29.95 in 1.2 mi East 4.6 mph - 0.01 in Snow Light Snow
6:05 AM 28.4 °F 22.2 °F 24.8 °F 86% 29.91 in 0.8 mi East 5.8 mph - 0.01 in Snow Light Snow
6:31 AM 28.4 °F 23.3 °F 24.8 °F 86% 29.89 in 0.5 mi ENE 4.6 mph - 0.05 in Fog , Snow Snow
6:51 AM 28.0 °F 21.7 °F 25.0 °F 88% 29.91 in 0.5 mi ENE 5.8 mph - 0.06 in Fog , Snow Snow
6:58 AM 28.4 °F 23.3 °F 24.8 °F 86% 29.88 in 1.0 mi ENE 4.6 mph - 0.01 in Snow Light Snow
7:11 AM 28.4 °F 20.4 °F 24.8 °F 86% 29.87 in 0.8 mi ENE 8.1 mph - 0.02 in Snow Light Snow
7:51 AM 28.0 °F 24.2 °F 24.1 °F 85% 29.88 in 0.8 mi East 3.5 mph - 0.04 in Snow Light Snow
7:58 AM 28.4 °F 22.2 °F 24.8 °F 86% 29.85 in 0.8 mi ENE 5.8 mph - 0.01 in Snow Light Snow
8:18 AM 28.4 °F 23.3 °F 24.8 °F 86% 29.85 in 0.8 mi NNE 4.6 mph - 0.01 in Snow Light Snow
8:35 AM 28.4 °F 22.2 °F 24.8 °F 86% 29.85 in 0.2 mi NNE 5.8 mph - 0.03 in Fog , Snow Heavy Snow
8:47 AM 28.4 °F 23.3 °F 24.8 °F 86% 29.86 in 0.5 mi NNE 4.6 mph - 0.04 in Fog , Snow Snow
8:51 AM 28.0 °F 22.8 °F 24.1 °F 85% 29.88 in 1.0 mi NNE 4.6 mph - 0.04 in Snow Light Snow
9:05 AM 28.4 °F 22.2 °F 24.8 °F 86% 29.86 in 1.0 mi NNE 5.8 mph - 0.00 in Snow Light Snow
9:11 AM 28.4 °F 20.4 °F 24.8 °F 86% 29.85 in 2.0 mi NNE 8.1 mph - 0.00 in Snow Light Snow
9:41 AM 26.6 °F 16.2 °F 23.0 °F 86% 29.83 in 2.0 mi NNE 11.5 mph - 0.02 in Snow Light Snow
9:51 AM 27.0 °F 18.7 °F 21.9 °F 81% 29.87 in 2.0 mi North 8.1 mph - 0.02 in Snow Light Snow
10:51 AM 26.1 °F 15.6 °F 21.0 °F 81% 29.85 in 0.8 mi NNE 11.5 mph - 0.04 in Snow Light Snow
10:58 AM 26.6 °F 16.8 °F 21.2 °F 80% 29.84 in 0.8 mi NNE 10.4 mph - 0.00 in Snow Light Snow
11:25 AM 24.8 °F 14.0 °F 21.2 °F 86% 29.83 in 1.0 mi North 11.5 mph - 0.01 in Snow Light Snow
11:49 AM 24.8 °F 14.0 °F 19.4 °F 80% 29.82 in 0.5 mi North 11.5 mph - 0.02 in Snow Snow
11:51 AM 25.0 °F 12.6 °F 19.9 °F 81% 29.84 in 0.5 mi North 15.0 mph - 0.02 in Snow Snow
12:15 PM 24.8 °F 12.9 °F 19.4 °F 80% 29.80 in 0.5 mi North 13.8 mph - 0.01 in Snow Snow
12:34 PM 24.8 °F 11.9 °F 19.4 °F 80% 29.79 in 0.5 mi NNE 16.1 mph - 0.01 in Snow Snow
12:51 PM 25.0 °F 13.1 °F 19.0 °F 78% 29.81 in 0.5 mi North 13.8 mph - 0.02 in Snow Snow
1:01 PM 24.8 °F 14.0 °F 19.4 °F 80% 29.78 in 1.0 mi North 11.5 mph - 0.00 in Snow Light Snow
1:15 PM 24.8 °F 12.9 °F 19.4 °F 80% 29.78 in 1.5 mi North 13.8 mph - 0.00 in Snow Light Snow
1:51 PM 25.0 °F 12.6 °F 19.9 °F 81% 29.80 in 1.5 mi North 15.0 mph - 0.00 in Snow Light Snow
1:58 PM 24.8 °F 13.4 °F 19.4 °F 80% 29.77 in 1.0 mi North 12.7 mph - 0.01 in Snow Light Snow
2:51 PM 25.0 °F 15.5 °F 19.9 °F 81% 29.82 in 1.0 mi North 9.2 mph 20.7 mph 0.01 in Snow Light Snow
3:51 PM 23.0 °F 7.2 °F 16.0 °F 74% 29.85 in 0.8 mi North 23.0 mph 28.8 mph 0.00 in Snow Light Snow
4:05 PM 23.0 °F 8.3 °F 15.8 °F 74% 29.83 in 1.2 mi North 19.6 mph 28.8 mph 0.00 in Snow Light Snow
4:13 PM 21.2 °F 5.6 °F 15.8 °F 80% 29.84 in 1.5 mi North 20.7 mph 26.5 mph 0.00 in Snow Light Snow
4:17 PM 21.2 °F 6.4 °F 15.8 °F 80% 29.84 in 3.0 mi North 18.4 mph 29.9 mph 0.00 in Snow Light Snow
4:37 PM 19.4 °F 5.0 °F 12.2 °F 74% 29.86 in 0.5 mi NNW 16.1 mph 24.2 mph 0.00 in Snow Light Snow
4:46 PM 19.4 °F 3.6 °F 12.2 °F 74% 29.87 in 0.5 mi NNW 19.6 mph 27.6 mph 0.00 in Snow Light Snow
4:51 PM 19.0 °F 3.6 °F 12.9 °F 77% 29.91 in 1.0 mi North 18.4 mph 28.8 mph 0.00 in Snow Light Snow
5:29 PM 17.6 °F 1.3 °F 10.4 °F 73% 29.90 in 2.0 mi North 19.6 mph 29.9 mph 0.00 in Snow Light Snow
5:38 PM 15.8 °F -3.4 °F 8.6 °F 73% 29.91 in 3.0 mi North 26.5 mph 32.2 mph 0.00 in Snow Light Snow
5:51 PM 16.0 °F -2.1 °F 9.0 °F 74% 29.96 in 3.0 mi North 23.0 mph 31.1 mph 0.00 in Snow Light Snow
6:00 PM 15.8 °F -1.5 °F 8.6 °F 73% 29.93 in 4.0 mi NNW 20.7 mph 29.9 mph 0.00 in Snow Light Snow
6:51 PM 15.1 °F -4.4 °F 8.1 °F 74% 30.01 in 3.0 mi NNW 26.5 mph 31.1 mph 0.00 in Snow Light Snow
6:56 PM 15.8 °F -1.9 °F 8.6 °F 73% 29.98 in 2.5 mi NNW 21.9 mph 31.1 mph 0.00 in Snow Light Snow
7:51 PM 15.1 °F -4.0 °F 7.0 °F 70% 30.06 in 2.0 mi NNW 25.3 mph 31.1 mph 0.00 in Snow Light Snow
8:45 PM 15.8 °F -1.9 °F 6.8 °F 68% 30.06 in 3.0 mi NNW 21.9 mph 29.9 mph 0.00 in Snow Light Snow
8:51 PM 14.0 °F -4.7 °F 7.0 °F 74% 30.10 in 3.0 mi North 23.0 mph 29.9 mph 0.00 in Snow Light Snow
9:00 PM 14.0 °F -5.5 °F 6.8 °F 73% 30.06 in 2.5 mi NNW 25.3 mph 33.4 mph 0.00 in Snow Light Snow
9:11 PM 14.0 °F -4.3 °F 6.8 °F 73% 30.06 in 2.5 mi NNW 21.9 mph 32.2 mph 0.00 in Snow Light Snow
9:30 PM 14.0 °F -5.8 °F 6.8 °F 73% 30.07 in 1.2 mi NNW 26.5 mph 38.0 mph 0.00 in Snow Light Snow
9:40 PM 14.0 °F -2.5 °F 6.8 °F 73% 30.08 in 1.8 mi NNW 17.3 mph 34.5 mph 0.00 in Snow Light Snow
9:51 PM 14.0 °F -5.1 °F 7.0 °F 74% 30.12 in 1.5 mi NNW 24.2 mph 32.2 mph 0.00 in Snow Light Snow
10:11 PM 15.8 °F -1.9 °F 6.8 °F 68% 30.10 in 3.0 mi NNW 21.9 mph 34.5 mph 0.00 in Snow Light Snow
10:51 PM 14.0 °F -2.0 °F 6.1 °F 71% 30.14 in 7.0 mi NNW 16.1 mph 26.5 mph 0.00 in Snow Light Snow
11:06 PM 14.0 °F -2.0 °F 6.8 °F 73% 30.11 in 2.5 mi NW 16.1 mph 26.5 mph 0.00 in Snow Light Snow
11:28 PM 12.2 °F -5.8 °F 6.8 °F 79% 30.13 in 3.0 mi NW 19.6 mph 24.2 mph 0.00 in Snow Light Snow
11:51 PM 12.0 °F -5.6 °F 3.9 °F 70% 30.19 in 3.0 mi NNW 18.4 mph 24.2 mph 0.00 in Snow Light Snow